EHI
2 9 23 33 31 17 4 0 0 0 0 0 0 0 0 0 0 1 2 5 10 10 6 5 4 3 3 3 2 1 2 2 1 1 1 1 2 3 3 2 2 2 2 2 3 3 3 3 2
7 15 30 37 26 10 2 0 0 0 0 0 0 0 0 0 1 2 2 4 8 9 6 4 3 2 2 2 1 0 1 1 1 1 1 1 2 2 2 1 1 1 1 1 2 3 3 3 3
21 31 41 36 16 3 0 0 0 0 0 0 0 0 0 1 3 4 3 2 5 8 8 5 3 2 1 1 0 0 1 1 2 2 2 1 1 1 1 0 0 0 0 0 1 2 2 2 2
38 45 43 24 7 0 0 0 0 0 0 0 0 1 1 2 4 4 2 1 3 8 9 7 5 3 1 1 1 1 1 2 2 2 2 1 0 0 0 0 0 0 0 0 0 1 1 1 1
42 41 30 11 1 0 0 0 0 0 0 0 0 2 3 3 3 2 1 1 4 8 8 6 6 5 3 3 2 1 2 3 3 2 1 1 1 1 1 0 1 0 0 0 0 0 0 0 0
36 30 15 3 0 0 0 0 0 0 0 0 0 1 3 2 1 0 0 1 5 7 7 5 6 7 6 6 4 3 4 6 6 5 4 3 3 2 1 0 0 0 0 0 0 0 0 0 0
32 23 8 1 0 0 0 0 0 0 0 0 0 1 2 2 0 0 1 2 3 5 4 4 5 6 8 9 7 6 7 9 10 9 7 5 4 4 3 1 1 1 1 0 0 0 0 0 0
25 16 5 0 0 0 0 1 1 0 0 0 0 1 3 2 0 1 3 3 2 2 2 2 3 5 8 10 9 8 8 9 11 11 9 7 7 8 6 4 3 2 1 0 0 0 0 0 1
12 8 2 0 0 0 1 1 0 0 0 0 1 2 3 1 0 1 4 4 2 1 1 0 1 3 5 7 9 10 9 9 10 10 11 11 11 11 9 7 6 4 2 1 1 1 1 2 3
4 2 0 0 0 0 0 0 0 0 0 1 3 4 2 0 0 1 3 3 2 2 1 0 1 2 2 4 7 9 8 7 8 9 11 13 11 9 8 10 9 6 4 3 3 3 3 2 3
1 0 0 0 0 0 0 0 0 0 0 2 5 5 2 0 0 0 1 2 2 2 1 1 2 3 3 3 4 4 5 6 8 8 10 10 8 6 8 10 10 9 7 7 7 7 6 5 4
0 0 0 0 0 0 0 0 0 0 1 3 6 7 3 1 1 1 1 2 2 2 1 2 4 6 7 8 6 4 3 5 8 9 9 8 7 7 9 11 11 10 9 9 10 10 11 11 9
0 0 0 0 0 0 0 0 0 1 2 4 6 7 5 2 2 3 4 5 6 4 2 3 7 10 13 14 11 5 3 5 7 8 8 8 8 9 10 11 11 10 9 9 10 12 12 12 12
0 0 0 0 0 0 0 0 1 2 3 4 6 8 6 3 4 6 8 10 13 11 6 6 10 15 16 14 9 5 5 6 6 7 8 8 9 10 11 11 10 8 8 9 11 12 10 9 8
0 0 0 0 0 0 0 0 1 3 3 4 6 7 7 5 7 9 11 15 20 20 16 12 11 15 15 10 5 4 5 6 6 7 9 10 10 10 11 11 9 8 9 11 13 13 10 6 4
0 0 0 0 0 0 0 1 2 4 4 4 6 8 8 6 9 11 13 18 24 26 23 16 11 11 10 6 4 4 5 6 6 6 10 12 11 10 10 10 9 9 10 11 13 12 9 5 2
0 0 0 0 0 0 0 2 4 5 5 6 8 10 10 9 10 13 16 22 29 32 29 20 15 12 8 4 4 4 5 6 7 7 11 13 12 10 9 8 9 7 8 9 11 12 9 5 3
0 0 0 0 0 0 0 2 4 5 6 8 10 11 13 14 13 15 20 26 35 40 37 28 22 19 12 5 4 5 5 7 9 10 11 13 13 12 10 10 9 7 7 8 10 10 8 6 5
0 0 0 0 0 0 0 1 4 7 9 11 12 12 15 18 18 19 23 29 38 47 47 39 32 28 21 11 7 7 8 9 11 11 12 14 14 13 13 12 11 10 9 8 8 8 6 5 5
0 0 0 0 0 0 0 1 5 10 12 14 15 15 18 21 26 30 29 30 39 52 57 51 44 39 31 21 14 11 11 12 12 14 17 18 17 15 15 15 13 11 9 7 8 8 6 3 3
0 0 0 0 0 0 0 2 7 11 11 12 16 20 22 26 37 43 38 35 41 54 61 60 56 51 43 32 21 15 15 14 14 17 21 22 21 19 17 16 14 10 8 6 8 10 6 2 1
0 0 0 0 0 0 1 2 7 12 12 9 13 20 25 31 44 51 46 42 45 53 60 65 66 61 52 41 28 21 18 16 16 20 24 24 22 20 18 18 18 13 7 6 8 9 7 3 1
0 0 0 0 0 0 0 2 7 12 13 11 11 17 25 33 43 50 50 48 49 52 58 67 70 67 59 46 36 29 24 21 20 21 23 23 22 19 17 19 21 16 9 7 8 9 7 5 3
0 0 0 0 0 0 0 2 6 10 11 12 14 17 24 31 39 45 48 49 50 52 57 66 72 69 62 51 43 38 32 27 24 22 21 20 19 19 17 18 20 17 13 11 11 10 10 7 5
0 0 0 0 1 0 0 2 7 8 8 10 13 17 22 27 34 40 44 47 51 53 57 65 71 69 61 52 47 44 38 30 25 22 20 17 16 18 19 18 17 15 13 11 12 12 11 9 8
0 0 0 0 0 0 0 3 7 7 7 7 10 15 19 23 29 36 40 44 48 52 57 65 71 69 59 51 48 46 38 29 25 24 21 16 14 18 22 21 18 15 12 10 11 11 11 10 10
0 0 0 0 0 0 0 3 7 7 6 6 8 13 18 22 26 31 37 41 43 45 53 64 72 70 60 51 48 45 38 31 28 27 22 16 14 17 23 24 21 19 16 12 10 9 10 11 11
0 0 0 0 0 0 0 2 5 6 5 6 9 14 19 24 26 28 32 38 39 38 43 57 69 69 60 53 48 45 41 34 30 27 23 18 16 18 23 24 23 21 19 15 12 10 10 11 10
0 0 0 0 0 0 0 1 2 3 4 5 10 16 21 22 24 27 30 35 37 37 40 50 64 66 59 55 51 48 44 37 31 29 27 25 24 25 25 25 24 22 19 16 13 11 10 10 10
0 0 0 0 0 0 0 1 1 2 3 5 11 18 21 20 22 28 32 35 37 39 41 51 62 64 59 57 55 50 45 38 33 31 30 30 30 30 28 26 25 22 18 16 13 12 11 11 12
Wind_Speed
9 10 8 5 4 2 7 11 12 11 11 11 10 11 15 15 11 10 9 12 14 14 13 12 12 12 12 12 11 10 10 10 9 10 10 10 10 9 9 10 10 10 10 10 9 9 9 9 9
8 9 6 4 3 3 10 10 11 11 10 9 11 13 15 14 13 12 9 11 14 14 12 12 13 12 11 11 11 10 10 9 9 9 9 9 9 8 9 9 10 9 9 9 9 9 9 9 8
11 9 6 4 1 8 10 10 9 9 8 9 12 13 12 10 11 10 11 12 14 13 13 13 13 12 11 11 10 10 9 9 8 9 9 9 9 9 9 10 10 9 9 9 9 9 8 8 7
7 6 5 2 8 11 9 8 8 9 9 10 11 12 12 10 11 12 13 13 14 14 14 13 13 12 11 11 10 10 9 8 8 8 9 9 9 9 9 10 9 8 8 8 8 8 8 7 6
6 4 3 2 10 9 8 8 8 10 10 12 15 14 13 12 14 14 12 12 13 13 13 13 13 12 11 10 9 9 8 8 8 8 9 9 9 8 9 9 8 7 8 8 8 7 7 6 5
5 2 2 6 10 9 9 9 10 10 10 12 14 14 11 12 13 12 12 11 13 13 13 12 12 12 10 10 9 8 7 7 7 8 8 8 8 8 8 8 7 7 7 7 7 7 6 5 4
4 3 2 6 9 9 9 10 10 9 9 9 12 13 11 12 11 11 11 11 12 13 12 11 11 10 10 9 8 8 7 7 7 8 8 8 8 8 8 8 7 6 6 7 7 6 5 5 4
4 3 3 7 8 9 10 10 10 9 9 8 9 11 12 13 12 11 11 10 10 11 10 10 10 9 8 8 9 9 8 8 8 7 7 7 7 7 8 8 7 6 6 6 6 6 5 5 4
3 2 5 7 7 8 9 10 9 9 10 9 11 15 16 15 13 12 11 9 9 9 8 8 8 8 8 9 9 9 8 8 8 7 8 6 4 5 6 7 9 7 6 6 6 6 5 5 4
1 2 6 6 6 8 8 8 7 9 10 12 14 17 16 14 12 12 11 10 9 9 8 7 7 6 6 6 7 5 5 6 5 4 4 3 3 3 5 8 9 8 7 7 7 7 6 5 3
3 3 4 6 7 7 7 7 7 7 8 12 14 16 15 14 12 11 11 10 9 9 7 7 7 6 4 4 4 3 3 4 4 4 4 3 2 3 4 4 5 5 6 4 6 5 4 3 2
2 4 4 6 6 5 6 7 8 9 9 13 15 15 14 13 11 11 11 11 10 9 8 7 7 5 4 3 3 3 2 3 3 3 3 3 2 2 2 2 3 3 2 2 3 2 2 2 2
1 2 3 4 4 5 5 6 9 10 12 14 15 14 14 12 11 10 10 10 9 9 8 8 7 6 4 2 1 3 3 3 4 3 3 2 2 2 2 2 2 2 2 3 2 2 2 2 1
1 1 1 2 3 4 4 6 8 10 12 13 13 13 12 11 12 11 10 9 9 8 9 8 7 6 4 2 1 2 3 3 4 3 3 2 2 2 2 2 1 1 1 2 2 2 2 2 2
3 2 3 3 3 4 5 3 7 11 11 12 12 11 11 11 11 11 10 10 10 8 8 7 8 7 4 3 2 2 2 4 4 3 3 3 3 3 2 2 2 1 1 2 2 2 2 2 2
6 6 5 3 3 4 4 3 8 12 12 10 11 12 11 11 11 11 11 10 10 9 8 5 6 8 5 2 1 1 2 3 3 3 3 3 3 2 1 2 2 1 1 2 2 2 2 2 1
7 6 5 3 2 2 3 4 8 11 12 10 11 12 12 11 12 11 12 11 10 9 8 6 5 7 6 4 2 1 2 3 3 3 3 3 3 2 2 2 1 1 1 1 1 2 1 1 1
6 6 4 1 2 2 2 4 9 11 12 12 11 11 13 12 12 12 12 12 11 10 8 7 6 6 5 4 2 1 2 2 2 2 3 3 2 2 1 2 2 1 1 1 2 1 1 1 1
9 8 5 3 1 4 3 3 8 9 11 11 11 11 13 13 13 13 13 13 12 11 9 8 7 6 4 3 3 2 2 2 2 2 3 3 2 2 1 1 2 1 2 2 1 1 0 0 0
10 10 7 4 3 4 5 4 6 9 11 11 12 13 14 14 14 13 13 13 13 12 11 9 7 7 6 4 3 3 3 2 2 2 3 2 2 2 2 2 1 2 2 2 1 1 0 1 0
12 9 7 7 5 7 7 5 4 7 9 10 11 12 12 14 16 15 14 13 13 12 12 10 9 8 7 6 4 3 3 1 2 3 3 2 2 1 2 2 1 1 2 2 1 1 1 0 1
10 8 9 10 9 7 7 5 4 6 8 8 9 10 11 13 14 15 15 14 14 13 12 10 10 8 7 6 5 6 5 3 3 2 3 3 2 2 2 2 2 1 1 2 1 1 0 1 1
9 9 10 12 11 11 11 8 4 7 8 9 10 10 10 11 13 14 14 13 13 13 12 11 10 9 8 7 6 5 4 3 3 3 4 3 3 2 2 3 2 2 1 2 1 1 0 1 1
9 11 11 10 9 10 11 9 3 4 7 8 8 9 9 10 11 12 11 11 11 13 12 12 11 9 8 7 7 6 5 4 4 4 3 3 2 3 3 3 2 2 1 2 2 1 1 0 1
10 10 7 6 6 8 7 7 2 4 6 7 8 10 10 10 12 12 12 12 11 12 13 13 12 10 10 9 7 6 5 5 5 4 5 4 3 3 4 3 3 2 2 2 2 2 1 1 1
10 10 7 8 7 6 5 5 1 3 5 6 7 8 8 9 10 12 12 11 10 12 12 12 13 11 11 9 7 6 5 5 4 5 4 4 3 3 4 4 4 3 3 3 2 2 2 2 2
10 9 10 10 11 10 6 4 3 2 2 3 6 8 7 8 9 11 12 11 9 8 9 11 12 11 11 11 8 7 6 5 5 5 5 3 3 3 5 5 5 4 3 2 2 2 2 2 2
12 11 8 8 7 8 8 5 2 2 2 2 1 5 7 8 8 9 10 11 11 10 9 9 10 10 10 10 9 8 7 6 5 5 5 4 4 3 4 5 5 4 4 3 2 2 2 2 2
10 11 10 8 7 8 7 4 2 5 4 4 4 4 6 6 7 7 7 9 10 10 10 11 11 10 10 9 8 8 8 7 6 5 4 5 4 4 4 5 5 4 4 4 3 3 3 3 3
10 11 10 8 7 8 8 6 2 4 4 3 3 4 5 4 4 6 7 8 8 9 9 9 9 10 9 8 7 7 7 7 8 7 5 4 5 5 5 4 4 5 4 4 4 4 4 4 3
Wind_Direction
197 212 218 239 244 230 60 59 62 60 61 54 53 62 61 50 61 86 106 110 111 112 114 113 108 104 102 102 101 100 99 95 95 94 95 100 104 105 106 108 107 110 113 113 113 113 118 117 115
223 225 231 242 250 63 64 62 61 62 71 79 70 69 72 68 79 97 107 111 112 113 116 113 113 109 106 104 102 99 97 95 96 96 98 103 106 108 113 112 109 111 111 112 113 114 119 119 119
248 242 253 241 43 61 64 67 74 77 81 83 75 64 62 77 87 104 120 118 113 113 112 116 118 114 109 106 105 103 100 98 98 97 95 101 105 106 114 114 111 116 115 114 114 118 120 123 126
242 234 237 257 59 65 69 77 88 89 85 82 83 78 72 79 98 115 126 123 119 117 116 120 122 119 115 112 110 108 106 104 101 99 100 101 105 107 110 113 114 118 122 121 122 126 127 129 131
243 259 255 77 72 67 68 79 83 81 80 80 83 88 85 92 108 119 125 123 118 116 118 125 126 124 122 119 116 114 112 110 108 107 108 110 111 110 112 114 116 119 125 127 129 130 129 129 132
274 275 326 65 76 72 67 68 81 86 91 97 102 101 99 111 117 124 126 123 120 121 122 126 132 131 131 130 126 122 121 121 121 120 118 120 121 119 118 120 120 122 125 128 133 136 137 140 148
246 287 34 64 73 69 68 69 73 84 87 93 109 109 116 119 121 124 121 118 121 124 127 135 138 139 139 139 138 135 132 132 135 135 133 132 131 130 129 129 130 131 134 137 138 142 148 158 169
239 283 22 65 75 72 74 73 73 75 82 96 116 115 127 129 133 126 121 122 123 127 132 136 141 142 146 146 145 144 145 143 144 145 148 147 145 149 148 147 149 148 146 148 151 153 161 169 174
270 314 37 57 75 81 80 79 83 87 84 75 79 107 125 134 134 129 127 130 127 126 129 133 134 144 147 151 145 154 157 157 156 161 167 167 162 158 161 148 155 160 161 163 163 166 168 169 182
169 26 43 56 76 91 90 92 97 98 98 97 98 111 127 138 142 138 138 139 133 132 132 129 136 140 142 139 139 160 157 153 162 152 159 173 158 154 145 149 164 170 175 177 179 181 179 189 185
94 77 59 73 77 88 97 105 98 95 107 118 126 131 140 145 148 142 142 138 135 136 133 129 127 125 125 118 136 140 135 136 141 141 152 148 148 154 146 154 163 177 184 187 168 182 192 183 158
66 69 52 74 84 84 88 93 92 93 101 120 133 141 145 153 151 148 144 141 138 135 128 120 109 103 93 92 116 131 127 123 129 146 146 140 151 146 135 142 148 165 162 152 143 175 154 125 115
61 77 74 78 85 90 96 97 99 103 114 124 136 146 151 152 150 144 137 137 137 134 126 115 109 99 88 72 52 116 112 113 123 126 122 127 123 125 119 127 152 157 146 144 137 145 130 127 134
353 50 93 117 126 131 112 116 117 122 130 136 144 150 153 150 148 144 141 137 132 128 125 125 126 117 115 120 87 85 114 124 118 116 119 121 107 104 111 128 121 114 131 125 144 146 136 131 145
261 255 218 187 173 137 123 128 129 137 144 149 151 154 152 153 150 148 147 144 138 136 131 132 136 130 133 139 151 124 126 121 116 116 116 116 111 116 129 141 137 126 147 142 144 144 142 156 163
271 248 234 196 196 150 170 164 154 155 156 159 158 158 157 158 157 153 149 144 141 139 133 148 144 136 135 130 123 102 103 107 117 119 114 108 110 121 128 125 121 157 171 155 152 159 152 149 169
254 247 239 194 216 171 184 159 163 167 161 168 169 166 164 165 165 157 155 150 146 140 141 148 133 140 145 143 124 93 93 102 113 116 115 122 129 129 124 117 116 202 161 133 132 112 131 146 177
284 286 279 254 169 240 228 168 174 178 174 173 178 175 170 173 170 162 161 156 150 147 149 150 147 144 147 147 139 116 104 120 117 113 123 131 135 123 121 145 142 172 100 67 55 74 104 159 207
282 290 298 308 261 270 260 201 185 185 183 174 180 186 177 177 171 165 166 162 157 155 156 157 162 155 158 160 157 154 154 150 132 134 135 143 141 130 134 110 130 93 90 76 64 60 96 208 151
278 284 295 296 281 288 282 259 207 193 189 183 188 192 183 176 169 166 172 170 166 161 162 163 165 163 166 163 161 163 158 161 153 130 128 136 137 144 144 122 150 119 113 102 102 107 82 297 86
268 278 288 290 286 273 274 264 233 212 202 188 195 193 183 179 172 172 177 174 171 168 167 170 169 166 173 168 170 165 147 168 144 139 147 149 144 135 96 120 119 126 129 130 160 134 178 259 279
266 283 289 289 287 278 270 263 231 208 201 192 198 195 187 183 175 175 178 178 176 171 170 167 163 165 170 172 179 177 175 177 171 156 147 147 150 148 132 124 118 124 116 135 183 120 275 230 267
276 289 284 286 286 284 275 266 222 187 193 188 190 190 190 178 173 174 178 177 174 168 168 164 159 164 168 175 180 181 180 172 155 152 145 157 165 170 151 133 132 134 133 132 114 105 22 299 317
273 276 277 280 277 271 275 279 223 192 188 188 175 173 188 173 167 168 171 167 172 168 166 162 159 164 168 175 181 182 178 161 155 158 157 173 170 171 167 156 150 150 142 135 143 160 178 267 358
252 259 274 274 258 262 277 276 209 182 163 163 175 171 176 172 165 162 164 168 171 170 169 164 163 168 172 176 181 180 181 172 172 180 175 182 184 175 168 166 158 162 148 154 155 180 193 199 234
256 259 258 271 276 280 269 267 274 129 130 147 158 152 156 164 166 161 164 165 168 171 169 167 166 170 175 178 180 179 181 186 184 186 192 191 191 170 158 164 167 168 172 182 172 191 181 188 231
259 258 271 274 277 282 266 218 189 175 137 153 151 147 151 155 159 161 164 161 158 169 169 167 164 170 177 180 176 178 183 192 189 183 193 195 181 168 161 170 173 171 172 173 171 199 195 188 218
247 265 273 270 282 284 280 266 200 150 149 207 195 160 150 149 151 152 157 162 163 168 171 162 165 169 175 176 180 181 185 191 189 187 186 189 186 174 165 168 171 169 171 180 194 205 201 207 224
233 246 259 278 283 288 286 294 152 160 176 182 202 158 132 144 147 150 157 162 163 164 168 166 169 171 176 179 179 181 181 189 189 191 191 186 184 176 174 174 173 176 178 188 203 221 201 211 228
243 251 252 260 267 281 287 285 154 152 165 163 136 118 130 134 148 150 154 159 160 166 164 165 168 174 177 173 174 180 182 184 187 191 194 188 181 180 179 182 181 189 187 194 202 223 221 215 219